| time (UTC) | temp F | wind direction | speed MPH | gust MPH | rain 1hr in | rain 24hr in | rain mn in | humidity % | barometer mb |
| 20260506024045 | 65 | 190 | 1.0 | 4.0 | 0.00 | 0.00 | 0.00 | 71 | 1014.6 |
| 20260506023545 | 65 | 0 | 0.0 | 4.0 | 0.00 | 0.00 | 0.00 | 71 | 1014.6 |
| 20260506023107 | 65 | 222 | 1.0 | 4.0 | 0.00 | 0.00 | 0.00 | 70 | 1014.6 |
| 20260506022544 | 65 | 212 | 1.0 | 5.0 | 0.00 | 0.00 | 0.00 | 70 | 1014.6 |
| 20260506022047 | 65 | 235 | 2.0 | 5.0 | 0.00 | 0.00 | 0.00 | 69 | 1014.6 |
| 20260506021611 | 65 | 0 | 1.0 | 4.0 | 0.00 | 0.00 | 0.00 | 69 | 1014.6 |
| 20260506021049 | 65 | 0 | 0.0 | 4.0 | 0.00 | 0.00 | 0.00 | 70 | 1014.6 |
| 20260506020545 | 65 | 0 | 2.0 | 5.0 | 0.00 | 0.00 | 0.00 | 69 | 1014.7 |
| 20260506020048 | 65 | 0 | 0.0 | 5.0 | 0.00 | 0.00 | 0.00 | 69 | 1014.6 |
| 20260506015548 | 66 | 0 | 0.0 | 7.0 | 0.00 | 0.00 | 0.00 | 68 | 1014.6 |
| 20260506015051 | 66 | 219 | 1.0 | 7.0 | 0.00 | 0.00 | 0.00 | 69 | 1014.5 |
| 20260506014553 | 66 | 224 | 2.0 | 7.0 | 0.00 | 0.00 | 0.00 | 67 | 1014.6 |
| 20260506014050 | 67 | 214 | 2.0 | 5.0 | 0.00 | 0.00 | 0.00 | 67 | 1014.5 |
| 20260506013547 | 67 | 0 | 0.0 | 5.0 | 0.00 | 0.00 | 0.00 | 68 | 1014.5 |
| 20260506013101 | 66 | 177 | 1.0 | 7.0 | 0.00 | 0.00 | 0.00 | 67 | 1014.5 |
| 20260506012547 | 67 | 0 | 3.0 | 7.0 | 0.00 | 0.00 | 0.00 | 67 | 1014.4 |
| 20260506012047 | 67 | 173 | 0.0 | 4.0 | 0.00 | 0.00 | 0.00 | 68 | 1014.4 |
| 20260506011612 | 66 | 338 | 0.0 | 5.0 | 0.00 | 0.00 | 0.00 | 68 | 1014.4 |
| 20260506011046 | 66 | 0 | 0.0 | 8.0 | 0.00 | 0.00 | 0.00 | 69 | 1014.4 |
| 20260506010546 | 66 | 0 | 3.0 | 8.0 | 0.00 | 0.00 | 0.00 | 67 | 1014.5 |
| 20260506010059 | 67 | 221 | 2.0 | 9.0 | 0.00 | 0.00 | 0.00 | 66 | 1014.6 |
| 20260506005550 | 67 | 226 | 1.0 | 9.0 | 0.00 | 0.00 | 0.00 | 66 | 1014.5 |
| 20260506005047 | 68 | 184 | 1.0 | 6.0 | 0.00 | 0.00 | 0.00 | 64 | 1014.5 |
| 20260506004553 | 68 | 0 | 0.0 | 9.0 | 0.00 | 0.00 | 0.00 | 67 | 1014.5 |
| 20260506004047 | 67 | 155 | 2.0 | 11.0 | 0.00 | 0.00 | 0.00 | 67 | 1014.6 |
| 20260506003547 | 67 | 174 | 3.0 | 11.0 | 0.00 | 0.00 | 0.00 | 68 | 1014.6 |
| 20260506003055 | 66 | 173 | 1.0 | 5.0 | 0.00 | 0.00 | 0.00 | 69 | 1014.6 |
| 20260506002547 | 67 | 48 | 0.0 | 5.0 | 0.00 | 0.00 | 0.00 | 69 | 1014.6 |
| 20260506002047 | 66 | 155 | 1.0 | 8.0 | 0.00 | 0.00 | 0.00 | 69 | 1014.7 |
| 20260506001555 | 65 | 267 | 3.0 | 8.0 | 0.00 | 0.00 | 0.00 | 69 | 1014.7 |
| 20260506001048 | 65 | 203 | 3.0 | 8.0 | 0.00 | 0.00 | 0.00 | 70 | 1014.8 |
| 20260506000547 | 65 | 202 | 2.0 | 6.0 | 0.00 | 0.00 | 0.00 | 70 | 1014.8 |
| 20260506000054 | 65 | 220 | 2.0 | 6.0 | 0.00 | 0.00 | 0.00 | 69 | 1014.8 |
| 20260505235548 | 65 | 236 | 2.0 | 6.0 | 0.00 | 0.00 | 0.00 | 70 | 1015.0 |
| 20260505235048 | 64 | 255 | 1.0 | 8.0 | 0.00 | 0.00 | 0.00 | 70 | 1015.0 |
| 20260505234551 | 64 | 215 | 2.0 | 9.0 | 0.00 | 0.00 | 0.00 | 68 | 1015.0 |
| 20260505234045 | 64 | 225 | 3.0 | 9.0 | 0.00 | 0.00 | 0.00 | 71 | 1015.1 |
| 20260505233544 | 64 | 0 | 0.0 | 6.0 | 0.00 | 0.00 | 0.00 | 72 | 1015.1 |
| 20260505233052 | 64 | 159 | 2.0 | 7.0 | 0.00 | 0.00 | 0.00 | 72 | 1015.1 |
| 20260505232547 | 63 | 195 | 3.0 | 8.0 | 0.00 | 0.00 | 0.00 | 73 | 1015.2 |
| 20260505232048 | 63 | 219 | 0.0 | 8.0 | 0.00 | 0.00 | 0.00 | 75 | 1015.2 |
| 20260505231608 | 63 | 247 | 4.0 | 7.0 | 0.00 | 0.00 | 0.00 | 71 | 1015.3 |
| 20260505231045 | 63 | 194 | 0.0 | 7.0 | 0.00 | 0.00 | 0.00 | 74 | 1015.3 |
| 20260505230545 | 63 | 152 | 2.0 | 9.0 | 0.00 | 0.00 | 0.00 | 73 | 1015.4 |
| 20260505230053 | 62 | 182 | 3.0 | 9.0 | 0.00 | 0.00 | 0.00 | 75 | 1015.5 |
| 20260505225546 | 62 | 199 | 2.0 | 7.0 | 0.00 | 0.00 | 0.00 | 75 | 1015.6 |
| 20260505225046 | 61 | 214 | 4.0 | 7.0 | 0.00 | 0.00 | 0.00 | 76 | 1015.6 |
| 20260505224603 | 61 | 214 | 2.0 | 6.0 | 0.00 | 0.00 | 0.00 | 77 | 1015.6 |
| 20260505224045 | 61 | 215 | 3.0 | 6.0 | 0.00 | 0.00 | 0.00 | 76 | 1015.7 |
| 20260505223545 | 61 | 203 | 1.0 | 7.0 | 0.00 | 0.00 | 0.00 | 76 | 1015.7 |
| 20260505223057 | 61 | 211 | 3.0 | 7.0 | 0.00 | 0.00 | 0.00 | 77 | 1015.7 |
| 20260505222550 | 61 | 252 | 3.0 | 9.0 | 0.00 | 0.00 | 0.00 | 77 | 1015.7 |
| 20260505222046 | 61 | 191 | 2.0 | 9.0 | 0.00 | 0.00 | 0.00 | 76 | 1015.8 |
| 20260505221551 | 61 | 213 | 2.0 | 6.0 | 0.00 | 0.00 | 0.00 | 76 | 1015.8 |
| 20260505221047 | 61 | 147 | 3.0 | 8.0 | 0.00 | 0.00 | 0.00 | 76 | 1015.8 |
| 20260505220547 | 61 | 0 | 2.0 | 8.0 | 0.00 | 0.00 | 0.00 | 77 | 1015.8 |
| 20260505220100 | 61 | 226 | 3.0 | 7.0 | 0.00 | 0.00 | 0.00 | 77 | 1015.8 |
| 20260505215546 | 61 | 118 | 3.0 | 7.0 | 0.00 | 0.00 | 0.00 | 77 | 1015.8 |
| 20260505215045 | 60 | 145 | 2.0 | 8.0 | 0.00 | 0.00 | 0.00 | 78 | 1015.9 |
| 20260505214557 | 60 | 163 | 3.0 | 8.0 | 0.00 | 0.00 | 0.00 | 78 | 1015.9 |
| 20260505214045 | 60 | 173 | 3.0 | 8.0 | 0.00 | 0.00 | 0.00 | 79 | 1015.8 |
| 20260505213544 | 60 | 186 | 3.0 | 8.0 | 0.00 | 0.00 | 0.00 | 79 | 1015.8 |
| 20260505213054 | 60 | 164 | 3.0 | 8.0 | 0.00 | 0.00 | 0.00 | 79 | 1015.9 |
| 20260505212546 | 59 | 188 | 2.0 | 8.0 | 0.00 | 0.00 | 0.00 | 80 | 1015.9 |
| 20260505212045 | 59 | 184 | 3.0 | 8.0 | 0.00 | 0.00 | 0.00 | 80 | 1015.9 |
| 20260505211549 | 59 | 222 | 3.0 | 8.0 | 0.00 | 0.00 | 0.00 | 80 | 1015.9 |
| 20260505211046 | 59 | 212 | 3.0 | 8.0 | 0.00 | 0.00 | 0.00 | 80 | 1016.0 |
| 20260505210544 | 60 | 259 | 1.0 | 7.0 | 0.00 | 0.00 | 0.00 | 80 | 1016.0 |
| 20260505210050 | 59 | 226 | 2.0 | 7.0 | 0.00 | 0.00 | 0.00 | 80 | 1016.0 |
| 20260505205546 | 59 | 213 | 1.0 | 7.0 | 0.00 | 0.00 | 0.00 | 80 | 1016.0 |
| 20260505205047 | 59 | 232 | 1.0 | 6.0 | 0.00 | 0.00 | 0.00 | 81 | 1016.1 |
| 20260505204551 | 59 | 155 | 2.0 | 6.0 | 0.00 | 0.00 | 0.00 | 81 | 1016.0 |
| 20260505204047 | 59 | 215 | 2.0 | 6.0 | 0.00 | 0.00 | 0.00 | 81 | 1016.1 |
| 20260505203545 | 59 | 214 | 1.0 | 8.0 | 0.00 | 0.00 | 0.00 | 82 | 1016.2 |
| 20260505203110 | 58 | 189 | 2.0 | 9.0 | 0.00 | 0.00 | 0.00 | 81 | 1016.2 |
| 20260505202546 | 59 | 207 | 3.0 | 9.0 | 0.00 | 0.00 | 0.00 | 81 | 1016.1 |
| 20260505202047 | 59 | 195 | 3.0 | 9.0 | 0.00 | 0.00 | 0.00 | 81 | 1016.1 |
| 20260505201601 | 59 | 168 | 2.0 | 7.0 | 0.00 | 0.00 | 0.00 | 81 | 1016.1 |
| 20260505201047 | 58 | 228 | 1.0 | 5.0 | 0.00 | 0.00 | 0.00 | 84 | 1016.1 |
| 20260505200547 | 58 | 217 | 1.0 | 7.0 | 0.00 | 0.00 | 0.00 | 83 | 1016.0 |
| 20260505200054 | 58 | 168 | 3.0 | 7.0 | 0.00 | 0.00 | 0.00 | 83 | 1016.1 |
| 20260505195548 | 58 | 231 | 2.0 | 7.0 | 0.00 | 0.00 | 0.00 | 83 | 1016.1 |
| 20260505195046 | 57 | 216 | 1.0 | 7.0 | 0.00 | 0.00 | 0.00 | 84 | 1016.1 |
| 20260505194557 | 57 | 223 | 3.0 | 7.0 | 0.00 | 0.00 | 0.00 | 84 | 1016.2 |
| 20260505194046 | 57 | 246 | 3.0 | 7.0 | 0.00 | 0.00 | 0.00 | 84 | 1016.1 |
| 20260505193545 | 57 | 209 | 2.0 | 7.0 | 0.00 | 0.00 | 0.00 | 84 | 1016.1 |
| 20260505193053 | 57 | 183 | 1.0 | 8.0 | 0.00 | 0.00 | 0.00 | 84 | 1016.1 |
| 20260505192547 | 57 | 0 | 1.0 | 8.0 | 0.00 | 0.00 | 0.00 | 84 | 1016.1 |
| 20260505192045 | 57 | 248 | 3.0 | 7.0 | 0.00 | 0.00 | 0.00 | 83 | 1016.0 |
| 20260505191608 | 57 | 239 | 2.0 | 6.0 | 0.00 | 0.00 | 0.00 | 84 | 1016.0 |
| 20260505191046 | 57 | 221 | 0.0 | 6.0 | 0.00 | 0.00 | 0.00 | 84 | 1016.0 |
| 20260505190547 | 57 | 205 | 2.0 | 5.0 | 0.00 | 0.00 | 0.00 | 84 | 1016.0 |
| 20260505190051 | 57 | 0 | 1.0 | 7.0 | 0.00 | 0.00 | 0.00 | 84 | 1016.0 |
| 20260505185547 | 57 | 161 | 3.0 | 8.0 | 0.00 | 0.00 | 0.00 | 84 | 1016.1 |
| 20260505185047 | 57 | 196 | 2.0 | 8.0 | 0.00 | 0.00 | 0.00 | 85 | 1015.9 |
| 20260505184552 | 57 | 205 | 3.0 | 8.0 | 0.00 | 0.00 | 0.00 | 85 | 1016.0 |
| 20260505184047 | 57 | 163 | 2.0 | 7.0 | 0.00 | 0.00 | 0.00 | 85 | 1015.9 |
| 20260505183548 | 57 | 212 | 2.0 | 7.0 | 0.00 | 0.00 | 0.00 | 85 | 1015.9 |
| 20260505183055 | 57 | 206 | 1.0 | 7.0 | 0.00 | 0.00 | 0.00 | 84 | 1015.9 |
| 20260505182544 | 57 | 203 | 2.0 | 6.0 | 0.00 | 0.00 | 0.00 | 84 | 1015.9 |
| 20260505182046 | 57 | 0 | 2.0 | 6.0 | 0.00 | 0.00 | 0.00 | 84 | 1015.8 |
| 20260505181553 | 57 | 217 | 1.0 | 7.0 | 0.00 | 0.00 | 0.00 | 85 | 1015.8 |
| 20260505181045 | 57 | 172 | 1.0 | 7.0 | 0.00 | 0.00 | 0.00 | 85 | 1015.8 |
| 20260505180543 | 56 | 144 | 2.0 | 6.0 | 0.00 | 0.00 | 0.00 | 86 | 1015.8 |
| 20260505175545 | 56 | 167 | 2.0 | 7.0 | 0.00 | 0.00 | 0.00 | 86 | 1015.8 |
| 20260505175045 | 56 | 167 | 3.0 | 7.0 | 0.00 | 0.00 | 0.00 | 86 | 1015.8 |
| 20260505174605 | 56 | 175 | 1.0 | 6.0 | 0.00 | 0.00 | 0.00 | 87 | 1015.9 |
| 20260505174047 | 56 | 213 | 2.0 | 8.0 | 0.00 | 0.00 | 0.00 | 87 | 1015.9 |
| 20260505173549 | 56 | 199 | 3.0 | 8.0 | 0.00 | 0.00 | 0.00 | 87 | 1015.9 |
| 20260505173057 | 56 | 142 | 3.0 | 7.0 | 0.00 | 0.00 | 0.00 | 87 | 1015.8 |
| 20260505172545 | 56 | 0 | 1.0 | 7.0 | 0.00 | 0.00 | 0.00 | 87 | 1015.8 |
| 20260505172044 | 55 | 180 | 2.0 | 7.0 | 0.00 | 0.00 | 0.00 | 87 | 1015.7 |
| 20260505171551 | 55 | 196 | 3.0 | 6.0 | 0.00 | 0.00 | 0.00 | 87 | 1015.8 |
| 20260505171047 | 55 | 176 | 1.0 | 6.0 | 0.00 | 0.00 | 0.00 | 87 | 1015.8 |
| 20260505170543 | 55 | 0 | 2.0 | 5.0 | 0.00 | 0.00 | 0.00 | 87 | 1015.8 |
| 20260505170107 | 55 | 225 | 1.0 | 4.0 | 0.00 | 0.00 | 0.00 | 87 | 1015.8 |
| 20260505165546 | 55 | 146 | 0.0 | 3.0 | 0.00 | 0.00 | 0.00 | 88 | 1015.8 |
| 20260505165050 | 55 | 0 | 1.0 | 5.0 | 0.00 | 0.00 | 0.00 | 88 | 1015.8 |
| 20260505164553 | 55 | 202 | 1.0 | 6.0 | 0.00 | 0.00 | 0.00 | 88 | 1015.8 |
| 20260505164046 | 55 | 213 | 3.0 | 6.0 | 0.00 | 0.00 | 0.00 | 87 | 1015.8 |
| 20260505163548 | 55 | 156 | 1.0 | 5.0 | 0.00 | 0.00 | 0.00 | 88 | 1015.7 |
| 20260505163052 | 55 | 164 | 1.0 | 5.0 | 0.00 | 0.00 | 0.00 | 88 | 1015.7 |
| 20260505162543 | 55 | 172 | 1.0 | 5.0 | 0.00 | 0.00 | 0.00 | 88 | 1015.7 |
| 20260505162047 | 55 | 0 | 1.0 | 6.0 | 0.00 | 0.00 | 0.00 | 88 | 1015.7 |
| 20260505161610 | 55 | 165 | 0.0 | 6.0 | 0.00 | 0.00 | 0.00 | 88 | 1015.7 |
| 20260505161046 | 55 | 157 | 1.0 | 5.0 | 0.00 | 0.00 | 0.00 | 88 | 1015.7 |
| 20260505160546 | 55 | 217 | 2.0 | 7.0 | 0.00 | 0.00 | 0.00 | 88 | 1015.7 |
| 20260505153100 | 54 | 160 | 2.0 | 6.0 | 0.00 | 0.00 | 0.00 | 90 | 1015.4 |
| 20260505152548 | 54 | 160 | 0.0 | 5.0 | 0.00 | 0.00 | 0.00 | 90 | 1015.5 |
| 20260505152045 | 54 | 161 | 1.0 | 6.0 | 0.00 | 0.00 | 0.00 | 90 | 1015.4 |
| 20260505151601 | 53 | 161 | 1.0 | 6.0 | 0.00 | 0.00 | 0.00 | 90 | 1015.3 |
| 20260505151045 | 53 | 161 | 2.0 | 9.0 | 0.00 | 0.00 | 0.00 | 91 | 1015.2 |
| 20260505150546 | 53 | 168 | 2.0 | 9.0 | 0.00 | 0.00 | 0.00 | 91 | 1015.3 |
| 20260505140545 | 53 | 169 | 0.0 | 5.0 | 0.00 | 0.00 | 0.00 | 92 | 1014.8 |
| 20260505140104 | 53 | 170 | 1.0 | 5.0 | 0.00 | 0.00 | 0.00 | 92 | 1014.7 |
| 20260505124551 | 51 | 167 | 1.0 | 5.0 | 0.00 | 0.00 | 0.00 | 94 | 1013.8 |
| 20260505124047 | 51 | 0 | 1.0 | 5.0 | 0.00 | 0.00 | 0.00 | 94 | 1013.8 |
| 20260505123546 | 51 | 167 | 2.0 | 5.0 | 0.00 | 0.00 | 0.00 | 94 | 1013.7 |
| 20260505123049 | 51 | 163 | 0.0 | 4.0 | 0.00 | 0.00 | 0.00 | 94 | 1013.7 |
| 20260505122548 | 50 | 0 | 0.0 | 4.0 | 0.00 | 0.00 | 0.00 | 93 | 1013.7 |
| 20260505122046 | 50 | 163 | 1.0 | 5.0 | 0.00 | 0.00 | 0.00 | 93 | 1013.7 |
| 20260505121612 | 50 | 0 | 1.0 | 6.0 | 0.00 | 0.00 | 0.00 | 93 | 1013.7 |
| 20260505121046 | 50 | 163 | 3.0 | 6.0 | 0.00 | 0.00 | 0.00 | 93 | 1013.6 |
| 20260505120546 | 50 | 174 | 1.0 | 3.0 | 0.00 | 0.00 | 0.00 | 93 | 1013.6 |
| 20260505120055 | 50 | 174 | 0.0 | 3.0 | 0.00 | 0.00 | 0.00 | 93 | 1013.6 |
| 20260505115551 | 50 | 174 | 0.0 | 3.0 | 0.00 | 0.00 | 0.00 | 93 | 1013.6 |
| 20260505115047 | 50 | 174 | 1.0 | 6.0 | 0.00 | 0.00 | 0.00 | 94 | 1013.6 |
| 20260505114551 | 50 | 174 | 1.0 | 6.0 | 0.00 | 0.00 | 0.00 | 94 | 1013.5 |
| 20260505114045 | 50 | 0 | 1.0 | 4.0 | 0.00 | 0.00 | 0.00 | 93 | 1013.5 |
| 20260505113546 | 50 | 178 | 0.0 | 3.0 | 0.00 | 0.00 | 0.00 | 93 | 1013.6 |
| 20260505113052 | 50 | 238 | 0.0 | 3.0 | 0.00 | 0.00 | 0.00 | 93 | 1013.6 |
| 20260505112547 | 49 | 0 | 0.0 | 3.0 | 0.00 | 0.00 | 0.00 | 93 | 1013.6 |
| 20260505112046 | 49 | 0 | 0.0 | 2.0 | 0.00 | 0.00 | 0.00 | 93 | 1013.6 |
| 20260505111550 | 49 | 0 | 0.0 | 2.0 | 0.00 | 0.00 | 0.00 | 93 | 1013.5 |
| 20260505111046 | 49 | 0 | 0.0 | 0.0 | 0.00 | 0.00 | 0.00 | 92 | 1013.5 |
| 20260505110545 | 49 | 0 | 0.0 | 1.0 | 0.00 | 0.00 | 0.00 | 92 | 1013.4 |
| 20260505102046 | 49 | 0 | 0.0 | 0.0 | 0.00 | 0.00 | 0.00 | 91 | 1013.1 |
| 20260505101558 | 49 | 0 | 0.0 | 0.0 | 0.00 | 0.00 | 0.00 | 91 | 1013.1 |
| 20260505101046 | 49 | 0 | 0.0 | 0.0 | 0.00 | 0.00 | 0.00 | 91 | 1013.1 |
| 20260505100544 | 49 | 0 | 0.0 | 0.0 | 0.00 | 0.00 | 0.00 | 90 | 1013.1 |
| 20260505100101 | 50 | 0 | 0.0 | 0.0 | 0.00 | 0.00 | 0.00 | 90 | 1013.0 |
| 20260505095545 | 50 | 0 | 0.0 | 0.0 | 0.00 | 0.00 | 0.00 | 90 | 1013.0 |
| 20260505095046 | 50 | 0 | 0.0 | 0.0 | 0.00 | 0.00 | 0.00 | 90 | 1013.0 |
| 20260505094552 | 50 | 0 | 0.0 | 0.0 | 0.00 | 0.00 | 0.00 | 89 | 1012.9 |
| 20260505094045 | 50 | 0 | 0.0 | 0.0 | 0.00 | 0.00 | 0.00 | 89 | 1012.8 |
| 20260505093545 | 50 | 0 | 0.0 | 0.0 | 0.00 | 0.00 | 0.00 | 89 | 1012.7 |
| 20260505093054 | 50 | 0 | 0.0 | 0.0 | 0.00 | 0.00 | 0.00 | 89 | 1012.7 |
| 20260505092549 | 50 | 0 | 0.0 | 0.0 | 0.00 | 0.00 | 0.00 | 88 | 1012.7 |
| 20260505092047 | 51 | 0 | 0.0 | 1.0 | 0.00 | 0.00 | 0.00 | 88 | 1012.5 |
| 20260505091550 | 51 | 0 | 0.0 | 1.0 | 0.00 | 0.00 | 0.00 | 88 | 1012.4 |
| 20260505091048 | 51 | 0 | 0.0 | 0.0 | 0.00 | 0.00 | 0.00 | 88 | 1012.4 |
| 20260505090546 | 51 | 0 | 0.0 | 3.0 | 0.00 | 0.00 | 0.00 | 88 | 1012.4 |
| 20260505085546 | 51 | 322 | 1.0 | 3.0 | 0.00 | 0.00 | 0.00 | 87 | 1012.3 |
| 20260505085046 | 51 | 322 | 0.0 | 2.0 | 0.00 | 0.00 | 0.00 | 87 | 1012.3 |
| 20260505084554 | 52 | 0 | 0.0 | 2.0 | 0.00 | 0.00 | 0.00 | 87 | 1012.3 |
| 20260505084045 | 52 | 0 | 0.0 | 0.0 | 0.00 | 0.00 | 0.00 | 86 | 1012.2 |
| 20260505083545 | 52 | 0 | 0.0 | 0.0 | 0.00 | 0.00 | 0.00 | 86 | 1012.1 |
| 20260505083056 | 52 | 0 | 0.0 | 0.0 | 0.00 | 0.00 | 0.00 | 86 | 1012.1 |
| 20260505082545 | 52 | 0 | 0.0 | 0.0 | 0.00 | 0.00 | 0.00 | 85 | 1012.1 |
| 20260505082045 | 53 | 0 | 0.0 | 0.0 | 0.00 | 0.00 | 0.00 | 85 | 1012.1 |
| 20260505081557 | 53 | 0 | 0.0 | 0.0 | 0.00 | 0.00 | 0.00 | 84 | 1012.1 |
| 20260505081045 | 53 | 0 | 0.0 | 0.0 | 0.00 | 0.00 | 0.00 | 84 | 1012.1 |
| 20260505080545 | 53 | 0 | 0.0 | 0.0 | 0.00 | 0.00 | 0.00 | 83 | 1012.0 |
| 20260505080055 | 54 | 0 | 0.0 | 0.0 | 0.00 | 0.00 | 0.00 | 82 | 1012.0 |
| 20260505075547 | 54 | 0 | 0.0 | 0.0 | 0.00 | 0.00 | 0.00 | 82 | 1012.0 |
| 20260505075045 | 54 | 0 | 0.0 | 1.0 | 0.00 | 0.00 | 0.00 | 81 | 1012.1 |
| 20260505074557 | 55 | 0 | 0.0 | 1.0 | 0.00 | 0.00 | 0.00 | 80 | 1012.1 |
| 20260505074046 | 55 | 0 | 0.0 | 1.0 | 0.00 | 0.00 | 0.00 | 80 | 1011.9 |
| 20260505073550 | 55 | 0 | 0.0 | 2.0 | 0.00 | 0.00 | 0.00 | 80 | 1011.9 |
| 20260505073059 | 55 | 0 | 0.0 | 2.0 | 0.00 | 0.00 | 0.00 | 79 | 1011.7 |
| 20260505072549 | 55 | 322 | 0.0 | 3.0 | 0.00 | 0.00 | 0.00 | 79 | 1011.6 |
| 20260505072049 | 56 | 0 | 0.0 | 3.0 | 0.00 | 0.00 | 0.00 | 78 | 1011.7 |
| 20260505071556 | 56 | 0 | 0.0 | 3.0 | 0.00 | 0.00 | 0.00 | 78 | 1011.5 |
| 20260505071044 | 56 | 322 | 0.0 | 3.0 | 0.00 | 0.00 | 0.00 | 77 | 1011.6 |
| 20260505070545 | 56 | 322 | 0.0 | 3.0 | 0.00 | 0.00 | 0.00 | 77 | 1011.5 |
| 20260505070051 | 56 | 296 | 1.0 | 3.0 | 0.00 | 0.00 | 0.00 | 76 | 1011.4 |
| 20260505065547 | 57 | 0 | 1.0 | 3.0 | 0.00 | 0.00 | 0.00 | 75 | 1011.4 |
| 20260505065046 | 57 | 303 | 0.0 | 3.0 | 0.00 | 0.00 | 0.00 | 75 | 1011.4 |
| 20260505064556 | 57 | 335 | 0.0 | 3.0 | 0.00 | 0.00 | 0.00 | 75 | 1011.4 |
| 20260505064043 | 57 | 0 | 0.0 | 3.0 | 0.00 | 0.00 | 0.00 | 75 | 1011.4 |
| 20260505063546 | 57 | 340 | 0.0 | 1.0 | 0.00 | 0.00 | 0.00 | 75 | 1011.3 |
| 20260505063053 | 57 | 0 | 0.0 | 1.0 | 0.00 | 0.00 | 0.00 | 75 | 1011.3 |
| 20260505062546 | 57 | 0 | 0.0 | 2.0 | 0.00 | 0.00 | 0.00 | 75 | 1011.2 |
| 20260505062045 | 57 | 0 | 0.0 | 2.0 | 0.00 | 0.00 | 0.00 | 75 | 1011.0 |
| 20260505061602 | 57 | 0 | 0.0 | 2.0 | 0.00 | 0.00 | 0.00 | 74 | 1010.9 |
| 20260505061043 | 57 | 360 | 0.0 | 1.0 | 0.00 | 0.00 | 0.00 | 75 | 1010.8 |
| 20260505060545 | 57 | 0 | 0.0 | 1.0 | 0.00 | 0.00 | 0.00 | 75 | 1010.7 |
| 20260505060058 | 58 | 0 | 0.0 | 1.0 | 0.00 | 0.00 | 0.00 | 74 | 1010.8 |
| 20260505055546 | 58 | 0 | 0.0 | 1.0 | 0.00 | 0.00 | 0.00 | 73 | 1010.7 |
| 20260505055046 | 58 | 0 | 0.0 | 4.0 | 0.00 | 0.00 | 0.00 | 73 | 1010.7 |
| 20260505054557 | 58 | 0 | 0.0 | 4.0 | 0.00 | 0.00 | 0.00 | 72 | 1010.7 |
| 20260505054046 | 59 | 327 | 0.0 | 2.0 | 0.00 | 0.00 | 0.00 | 72 | 1010.7 |
| 20260505053544 | 59 | 0 | 0.0 | 1.0 | 0.00 | 0.00 | 0.00 | 72 | 1010.8 |
| 20260505053106 | 58 | 0 | 0.0 | 1.0 | 0.00 | 0.00 | 0.00 | 71 | 1010.7 |
| 20260505052546 | 59 | 0 | 0.0 | 1.0 | 0.00 | 0.00 | 0.00 | 71 | 1010.7 |
| 20260505052046 | 59 | 0 | 0.0 | 3.0 | 0.00 | 0.00 | 0.00 | 71 | 1010.6 |
| 20260505051552 | 59 | 0 | 0.0 | 3.0 | 0.00 | 0.00 | 0.00 | 71 | 1010.6 |
| 20260505051045 | 59 | 0 | 0.0 | 4.0 | 0.00 | 0.00 | 0.00 | 70 | 1010.6 |
| 20260505050546 | 59 | 0 | 0.0 | 4.0 | 0.00 | 0.00 | 0.00 | 70 | 1010.6 |
| 20260505041550 | 62 | 0 | 0.0 | 1.0 | 0.00 | 0.00 | 0.00 | 69 | 1010.4 |
| 20260505041045 | 62 | 0 | 0.0 | 1.0 | 0.00 | 0.00 | 0.00 | 67 | 1010.3 |
| 20260505040547 | 62 | 0 | 0.0 | 2.0 | 0.00 | 0.00 | 0.00 | 67 | 1010.3 |
| 20260505040052 | 63 | 0 | 0.0 | 2.0 | 0.00 | 0.00 | 0.00 | 66 | 1010.2 |
| 20260505035546 | 63 | 360 | 0.0 | 2.0 | 0.00 | 0.00 | 0.00 | 67 | 1010.2 |
| 20260505035048 | 64 | 352 | 0.0 | 3.0 | 0.00 | 0.00 | 0.00 | 66 | 1010.1 |
| 20260505034552 | 64 | 352 | 0.0 | 4.0 | 0.00 | 0.00 | 0.00 | 64 | 1010.1 |
| 20260505034046 | 64 | 311 | 1.0 | 7.0 | 0.00 | 0.00 | 0.00 | 64 | 1010.1 |
| 20260505033547 | 65 | 13 | 1.0 | 7.0 | 0.00 | 0.00 | 0.00 | 64 | 1009.9 |
| 20260505033114 | 65 | 307 | 2.0 | 7.0 | 0.00 | 0.00 | 0.00 | 62 | 1009.9 |
| 20260505032546 | 65 | 350 | 0.0 | 4.0 | 0.00 | 0.00 | 0.00 | 62 | 1009.9 |
| 20260505032045 | 66 | 333 | 1.0 | 4.0 | 0.00 | 0.00 | 0.00 | 62 | 1010.0 |
| 20260505031553 | 67 | 0 | 0.0 | 4.0 | 0.00 | 0.00 | 0.00 | 63 | 1009.9 |
| 20260505031049 | 67 | 349 | 0.0 | 4.0 | 0.00 | 0.00 | 0.00 | 62 | 1009.8 |
| 20260505030543 | 68 | 305 | 1.0 | 4.0 | 0.00 | 0.00 | 0.00 | 61 | 1009.8 |
| 20260505030055 | 68 | 313 | 1.0 | 5.0 | 0.00 | 0.00 | 0.00 | 60 | 1009.8 |
| 20260505025545 | 69 | 302 | 1.0 | 5.0 | 0.00 | 0.00 | 0.00 | 59 | 1009.7 |
| 20260505025045 | 69 | 306 | 1.0 | 4.0 | 0.00 | 0.00 | 0.00 | 57 | 1009.6 |
| 20260505024604 | 69 | 0 | 1.0 | 5.0 | 0.00 | 0.00 | 0.00 | 56 | 1009.6 |